Location: Remedello Sotto
(45.2500°N, 10.3667°E)
Time: 10:15:42
(UTC+00:00)

Cosmos 1814 Rocket - Pass Details

Date: 03 February 2023
Orbit: 744 x 786 km, 74.1° (Epoch: 31 March)

Event Time Altitude Azimuth Distance (km) Brightness Sun altitude
Rises 18:18:43 0° 344° (NNW) 3,283 7.4 -19.7°
Reaches altitude 10° 18:21:15 10° 351° (N) 2,354 6.6 -20.1°
Enters shadow 18:26:17 41° 61° (ENE) 1,129 4.4 -21.0°
